Weather History for KFLG - April, 2012

Change the Weather History Date:

Tuesday, April 24, 2012

  Actual Average Record
Temperature  
Mean Temperature 53 °F 46 °F  
Max Temperature 72 °F 61 °F 77 °F (1949)
Min Temperature 34 °F 30 °F 10 °F (1900)
Degree Days  
Heating Degree Days 12 19  
Month to date heating degree days 477 539  
Since 1 July heating degree days 6014 6246  
Cooling Degree Days 0 0  
Month to date cooling degree days 0 0  
Year to date cooling degree days 0 0  
Growing Degree Days 2 (Base 50)    
Moisture  
Dew Point 20 °F    
Average Humidity 46    
Maximum Humidity 82    
Minimum Humidity 9    
Precipitation  
Precipitation 0.00 in 0.03 in 1.01 in (1990)
Month to date precipitation 0.66 0.98  
Year to date precipitation 3.88 7.31  
Snow  
Snow 0.00 in 0.20 in 4.90 in (1994)
Month to date snowfall 10.0 6.0  
Since 1 July snowfall 102.5 99.9  
Snow Depth 0.00 in    
Sea Level Pressure  
Sea Level Pressure 29.99 in    
Wind  
Wind Speed 8 mph (SW)    
Max Wind Speed 24 mph    
Max Gust Speed 31 mph    
Visibility 10 miles    
Events      
T = Trace of Precipitation, MM = Missing Value Source: NWS Daily Summary

Daily Weather History Graph

Daily Weather History Graph

Search for Another Location

Airport or City:

Trip Planner

Search our weather history database for the weather conditions in past years. The results will help you decide how hot, cold, wet, or windy it might be!

Date:

Astronomy

Apr. 24, 2012 Rise Set
Actual Time 5:42 AM MST 7:07 PM MST
Civil Twilight 5:16 AM MST 7:33 PM MST
Nautical Twilight 4:44 AM MST 8:05 PM MST
Astronomical Twilight 4:10 AM MST 8:39 PM MST
Moon 7:46 AM MST (4/24) 10:24 PM MST (4/24)
Length of Visible Light 14h 17m
Length of Day
13h 24m
Waxing Crescent, 11% of the Moon is Illuminated
Apr 24
Waxing Crescent
Apr 29
First Quarter
May 5
Full
May 12
Last Quarter
May 20
New

Hourly Weather History & Observations

Time (MST) Temp. Dew Point Humidity Pressure Visibility Wind Dir Wind Speed Gust Speed Precip Events Conditions
12:57 AM 44.1 °F 27.0 °F 51% 29.94 in 10.0 mi Calm Calm - N/A   Clear
1:57 AM 39.9 °F 26.1 °F 58% 29.95 in 10.0 mi Calm Calm - N/A   Clear
2:57 AM 39.9 °F 27.0 °F 60% 29.96 in 10.0 mi Calm Calm - N/A   Clear
3:57 AM 37.9 °F 28.0 °F 68% 29.96 in 10.0 mi Calm Calm - N/A   Clear
4:57 AM 35.1 °F 28.0 °F 76% 29.98 in 10.0 mi Calm Calm - N/A   Clear
5:57 AM 34.0 °F 28.0 °F 79% 30.00 in 10.0 mi Calm Calm - N/A   Clear
6:57 AM 43.0 °F 32.0 °F 65% 30.00 in 10.0 mi Calm Calm - N/A   Clear
7:57 AM 57.0 °F 27.0 °F 32% 29.97 in 10.0 mi SSW 8.1 mph - N/A   Clear
8:57 AM 62.1 °F 28.0 °F 28% 29.97 in 10.0 mi SW 16.1 mph 24.2 mph N/A   Clear
9:57 AM 64.9 °F 26.1 °F 23% 29.97 in 10.0 mi SSW 17.3 mph 23.0 mph N/A   Clear
10:57 AM 66.0 °F 25.0 °F 21% 30.00 in 10.0 mi SW 15.0 mph 23.0 mph N/A   Clear
11:57 AM 69.1 °F 21.0 °F 16% 29.99 in 10.0 mi SW 15.0 mph 26.5 mph N/A   Clear
12:57 PM 70.0 °F 17.1 °F 13% 29.98 in 10.0 mi SSW 16.1 mph 27.6 mph N/A   Clear
1:57 PM 71.1 °F 15.1 °F 12% 29.96 in 10.0 mi SSW 20.7 mph 28.8 mph N/A   Clear
2:57 PM 71.1 °F 10.9 °F 10% 29.96 in 10.0 mi WSW 15.0 mph 23.0 mph N/A   Clear
3:32 PM 71.6 °F 12.2 °F 10% 30.19 in 1.2 mi SW 20.7 mph 28.8 mph N/A   Haze
3:42 PM 71.6 °F 10.4 °F 9% 30.18 in 10.0 mi SW 23.0 mph 28.8 mph N/A   Clear
3:57 PM 70.0 °F 10.0 °F 10% 29.96 in 10.0 mi SW 18.4 mph 25.3 mph N/A   Clear
4:57 PM 70.0 °F 8.1 °F 9% 29.96 in 10.0 mi WSW 11.5 mph 18.4 mph N/A   Clear
5:57 PM 68.0 °F 9.0 °F 10% 29.96 in 10.0 mi SSW 13.8 mph - N/A   Clear
6:57 PM 64.0 °F 10.0 °F 12% 29.96 in 10.0 mi SW 8.1 mph - N/A   Clear
7:57 PM 55.9 °F 14.0 °F 19% 29.96 in 10.0 mi SSW 3.5 mph - N/A   Clear
8:57 PM 52.0 °F 14.0 °F 22% 29.98 in 10.0 mi Calm Calm - N/A   Clear
9:57 PM 46.0 °F 18.0 °F 33% 30.00 in 10.0 mi Calm Calm - N/A   Clear
10:57 PM 43.0 °F 19.0 °F 38% 30.01 in 10.0 mi Calm Calm - N/A   Clear
11:57 PM 39.9 °F 18.0 °F 41% 30.00 in 10.0 mi Calm Calm - N/A   Clear